SL-16 R/B DEB, 49050

Orbit data source: Space-Track

SL-16 R/B DEB, 49050 is space debris in LEO originally from a launch on Fri, 25 Dec 1992 UTC launched from the Tyuratam Missile And Space Complex (TTMTR). Debris objects in space refer to the collection of defunct objects orbiting the Earth. Examples of debris include non-operational satellites, rocket bodies, and fragments generated from explosions, collisions, or faulty payload assembly.

Loading next visibility...
Identifier
49050, 1992-093LX
Orbit
LEO
Country
Flag of CISCIS
Related business
Manufacturer
Unknown
Mission
Spacecraft
Bus & Motor
Unknown
Mass
Unknown
Launch date (UTC)
1992-12-25 (33 years ago)
Launch vehicle
Unknown
Launch site
Tyuratam Missile And Space Complex (TTMTR)
Object type
Payload
Rocket body
Debris
Shape & HBR
Unknown shape, 1.1 m
Radar Cross Section
RCS unknown

Expand to show TLE details & history
Last TLE update: 1 day ago

TLE from 1 day ago
0 SL-16 R/B DEB
1 49050U 92093LX  25351.91419698  .00017595  00000-0  85465-2 0  9991
2 49050  71.0198 175.6309 0006082  50.6903 309.4760 14.18263783  7443
Epoch: 2025-12-17T21:56Z
TLE epoch observation values (Epoch: 2025-12-17T21:56:26.619Z)
Latitude
0.00002°
Longitude
119.74277°
Altitude
830.849 km
Speed
7.439 km/s
True Right ascension
11h 42m 31s
True Declination
0° 00' 00"
Sunlit
Object was in daylight at epoch
Visualization orbit readout
Latitude
Unknown
Longitude
Unknown
Altitude
Unknown
Speed
Unknown
Apparent Right ascension
Unknown
Apparent Declination
Unknown
Sunlit
N/A
Visualization observer readout
Local Sidereal Time
01:40:08
Azimuth
Unknown
Elevation
Unknown
Doppler factor
Unknown
Orbital elements
Apogee altitude
833.534 km
Perigee altitude
824.767 km
Semi-major axis
7,207.287 km
Eccentricity
0.00061
Inclination
71.0198°
RAAN
175.6309°
Arg. of periapsis
50.6903°
True anomaly
309.42218°
Mean anomaly
309.476°
Eccentric anomaly
309.44909°
Mean motion
3.5472 °/min
Orbital period
101.49 mins
BSTAR
0.0085465
Loading maneuver chart data...
Computing Atmospheric mass density...
Loading historical data...
Loading historical data...
Loading historical data...
Loading historical data...
Loading historical data...
Loading historical data...
Loading historical data...

Documentation

Showing up to 5 results
|